Regional Weather Roundup
Issued by NWS Midland/Odessa, TX

Skip options and go directly to product.
Home | Oldest Version | Previous Version | Current Version | All | Graphics & Text | Save Text | Print | Product List | Glossary On

Skip product version selection by date and time.   
622
ASUS44 KMAF 010610
RWRMAF
MIDLAND AREA WEATHER ROUNDUP
NATIONAL WEATHER SERVICE MIDLAND TX
100 AM CDT FRI JUL 01 2016

...IN SOUTHWEST TEXAS AND SOUTHEAST NEW MEXICO...

CITY           SKY/WX    TMP DP  RH WIND       PRES   REMARKS
ALPINE         CLEAR     75  56  50 SE7       30.20F
ANDREWS        FAIR      76  57  50 S5        30.09F
ARTESIA        CLEAR     79  55  44 S10       30.08R
BIG SPRING     PTCLDY    75  58  55 E8        30.08S
CARLSBAD       CLEAR     79  57  46 SE7       30.05S
DRYDEN           N/A     82  56  40 SE6       30.01S
FORT STOCKTON  CLEAR     78  60  53 SE8       30.06F
GUAD PASS      CLOUDY    73  53  49 E24       30.20F
HOBBS          CLOUDY    77  55  47 SE10      30.12S
MARFA          CLEAR    N/A N/A N/A E6        30.18F
MIDLAND AIRPK  CLEAR     80  58  46 SE8       30.07S
MIDLAND INTL   CLEAR     78  60  53 SE7       30.07R
ODESSA         CLEAR     80  58  46 SE8       30.08S
PECOS          CLEAR     81  59  46 SE8       30.03R
PRESIDIO       FAIR      85  57  37 NE14G20   30.00S
SEMINOLE       PTCLDY    76  56  50 CALM      30.11S
SNYDER           N/A     78  63  60 SE5       30.07R
WINK           CLEAR     79  60  52 SE8       30.03S
$$
...OTHER STATIONS IN TEXAS...

CITY           SKY/WX    TMP DP  RH WIND       PRES   REMARKS
ABILENE        CLEAR     76  66  71 SE8       30.03S
AMARILLO       CLOUDY    69  62  78 SW13      30.09S
AUSTIN         CLEAR     76  73  91 S5        29.98S
BROWNSVILLE    CLEAR     79  76  90 S6        29.96S
CORPUS CHRISTI PTCLDY    80  76  87 SE5       29.96R
DALLAS FTW     PTCLDY    83  64  52 S8        29.97S
DEL RIO        CLEAR     85  67  54 E12       29.95S
EL PASO        PTCLDY    78  57  48 NE6       30.05R
HOUSTON INT    PTCLDY    78  75  90 CALM      29.96S
LUBBOCK        CLOUDY    72  64  76 SW3       30.10F
SAN ANGELO       N/A    N/A N/A N/A MISG      30.02R
SAN ANTONIO    PTCLDY    79  72  79 SE10      30.00R
WACO           PTCLDY    76  68  76 SE5       29.97F
WICHITA FALLS  NOT AVBL
$$
...OTHER LOCATIONS IN NEW MEXICO...

CITY           SKY/WX    TMP DP  RH WIND       PRES   REMARKS
ALAMAGORDO     CLEAR     81  43  26 S6        30.06F
ALBUQUERQUE    MOCLDY    79  47  32 E8        30.15S
CANNON AFB     CLOUDY    73  59  61 SE8       30.15S
CLOVIS         CLOUDY    70  57  64 S8        30.15R
HOLLOMAN AFB   CLEAR     81  44  27 S13       30.05R
ROSWELL        CLEAR     77  47  34 S12       30.07R
RUIDOSO          N/A     66  39  37 S10       30.31S
SANTA FE       LGT RAIN  70  50  49 N7        30.25R
TRUTH OR CONSE MOCLDY    79  52  38 NW8       30.10S
TUCUMCARI      CLOUDY    73  55  53 S7        30.11S
$$

USA.gov is the U.S. government's official web portal to all federal, state and local government web resources and services.